GW6857 Weather Reports


Display with metric or nautical units.
time (UTC)temp
F
wind
direction
speed
MPH
gust
MPH
rain 1hr
in
rain 24hr
in
rain mn
in
humidity
%
barometer
mb
20260504185507 72 250 5.0 11.0 0.00 0.00 0.00 34 1011.2
20260504185008 71 259 4.0 10.0 0.00 0.00 0.00 33 1011.3
20260504184524 71 266 3.0 13.0 0.00 0.00 0.00 33 1011.4
20260504184011 71 286 5.0 15.0 0.00 0.00 0.00 36 1011.5
20260504183511 71 167 5.0 15.0 0.00 0.00 0.00 32 1011.4
20260504183026 71 149 5.0 14.0 0.00 0.00 0.00 33 1011.5
20260504182512 72 256 4.0 12.0 0.00 0.00 0.00 34 1011.6
20260504182012 71 281 3.0 12.0 0.00 0.00 0.00 35 1011.6
20260504181526 71 192 4.0 11.0 0.00 0.00 0.00 34 1011.7
20260504181012 71 267 3.0 13.0 0.00 0.00 0.00 36 1011.8
20260504180513 70 201 6.0 13.0 0.00 0.00 0.00 33 1011.8
20260504180017 70 230 3.0 12.0 0.00 0.00 0.00 33 1011.9
20260504175509 70 311 4.0 11.0 0.00 0.00 0.00 36 1012.0
20260504175012 69 275 3.0 11.0 0.00 0.00 0.00 37 1012.0
20260504174519 70 265 4.0 11.0 0.00 0.00 0.00 36 1012.1
20260504174008 70 274 5.0 9.0 0.00 0.00 0.00 35 1012.1
20260504173508 70 180 4.0 8.0 0.00 0.00 0.00 38 1012.1
20260504173024 69 219 4.0 11.0 0.00 0.00 0.00 40 1012.2
20260504172508 69 281 4.0 11.0 0.00 0.00 0.00 34 1012.3
20260504172010 71 228 4.0 11.0 0.00 0.00 0.00 35 1012.5
20260504171534 70 235 1.0 10.0 0.00 0.00 0.00 40 1012.4
20260504171012 69 233 3.0 10.0 0.00 0.00 0.00 35 1012.6
20260504170511 69 200 4.0 7.0 0.00 0.00 0.00 37 1012.7
20260504151005 65 250 4.0 12.0 0.00 0.00 0.00 46 1013.7
20260504150503 65 232 4.0 10.0 0.00 0.00 0.00 46 1013.7
20260504141003 62 197 5.0 9.0 0.00 0.00 0.00 47 1014.0
20260504140503 62 189 4.0 9.0 0.00 0.00 0.00 49 1014.0
20260504130502 57 159 4.0 10.0 0.00 0.00 0.00 59 1014.7
20260504110507 49 169 2.0 7.0 0.00 0.00 0.00 69 1015.2
20260504100506 45 360 1.0 2.0 0.00 0.00 0.00 69 1015.2
20260504081527 45 360 1.0 2.0 0.00 0.00 0.00 65 1014.7
20260504081006 45 360 0.0 2.0 0.00 0.00 0.00 65 1014.8
20260504080507 45 360 0.0 2.0 0.00 0.00 0.00 65 1014.8
20260504050509 46 360 0.0 2.0 0.00 0.00 0.00 57 1014.5
20260504045509 47 360 0.0 2.0 0.00 0.00 0.00 55 1014.6
20260504045009 47 360 0.0 2.0 0.00 0.00 0.00 54 1014.6
20260504044527 48 360 0.0 3.0 0.00 0.00 0.00 54 1014.5
20260504044010 47 360 1.0 3.0 0.00 0.00 0.00 54 1014.5
20260504043510 48 360 0.0 2.0 0.00 0.00 0.00 54 1014.4
20260504043027 48 360 0.0 2.0 0.00 0.00 0.00 54 1014.4
20260504042508 48 360 0.0 2.0 0.00 0.00 0.00 54 1014.3
20260504042008 48 360 0.0 2.0 0.00 0.00 0.00 53 1014.2
20260504041522 48 360 0.0 2.0 0.00 0.00 0.00 53 1014.2
20260504041007 48 360 0.0 3.0 0.00 0.00 0.00 53 1014.1
20260504040509 48 360 1.0 3.0 0.00 0.00 0.00 52 1014.1
20260504040027 48 360 1.0 3.0 0.00 0.00 0.00 53 1014.1
20260504035503 47 360 0.0 2.0 0.00 0.00 0.00 54 1014.0
20260504035003 47 360 0.0 2.0 0.00 0.00 0.00 54 1013.9
20260504034512 48 360 0.0 2.0 0.00 0.00 0.00 54 1013.9
20260504034006 48 360 0.0 2.0 0.00 0.00 0.00 53 1013.9
20260504033506 48 360 0.0 2.0 0.00 0.00 0.00 52 1013.9
20260504033019 49 360 0.0 2.0 0.00 0.00 0.00 51 1013.8
20260504032507 49 360 0.0 2.0 0.00 0.00 0.00 50 1013.8
20260504032007 49 360 0.0 2.0 0.00 0.00 0.00 50 1013.8
20260504031521 49 360 0.0 2.0 0.00 0.00 0.00 50 1013.8
20260504031008 49 360 1.0 2.0 0.00 0.00 0.00 50 1013.8
20260504030512 49 360 0.0 2.0 0.00 0.00 0.00 50 1013.9
20260504030003 48 360 0.0 2.0 0.00 0.00 0.00 51 1013.9
20260504025507 48 360 0.0 2.0 0.00 0.00 0.00 51 1013.8
20260504025004 48 360 0.0 2.0 0.00 0.00 0.00 52 1013.8
20260504024507 46 360 0.0 0.0 0.00 0.00 0.00 54 1013.8
20260504024004 47 360 0.0 2.0 0.00 0.00 0.00 53 1013.8
20260504023504 47 360 0.0 2.0 0.00 0.00 0.00 52 1013.7
20260504023018 47 360 0.0 0.0 0.00 0.00 0.00 53 1013.8
20260504022507 48 360 0.0 0.0 0.00 0.00 0.00 52 1013.8
20260504022006 48 360 0.0 0.0 0.00 0.00 0.00 51 1013.8
20260504021519 48 360 0.0 0.0 0.00 0.00 0.00 51 1013.7
20260504021007 48 360 0.0 2.0 0.00 0.00 0.00 51 1013.7
20260504020507 47 360 0.0 2.0 0.00 0.00 0.00 52 1013.7
20260504020026 47 234 0.0 2.0 0.00 0.00 0.00 53 1013.6
20260504015510 47 234 0.0 0.0 0.00 0.00 0.00 54 1013.6
20260504015008 47 233 0.0 0.0 0.00 0.00 0.00 54 1013.6
20260504014506 47 360 0.0 0.0 0.00 0.00 0.00 54 1013.6
20260504014004 48 360 0.0 0.0 0.00 0.00 0.00 54 1013.5
20260504013504 48 360 0.0 0.0 0.00 0.00 0.00 54 1013.4
20260504013008 48 360 0.0 0.0 0.00 0.00 0.00 54 1013.4
20260504012504 49 360 0.0 0.0 0.00 0.00 0.00 51 1013.4
20260504012003 50 360 0.0 0.0 0.00 0.00 0.00 50 1013.3
20260504011521 50 233 0.0 0.0 0.00 0.00 0.00 46 1013.3
20260504011006 51 233 0.0 2.0 0.00 0.00 0.00 45 1013.2
20260504010506 52 234 0.0 2.0 0.00 0.00 0.00 43 1013.1
20260504010020 53 234 0.0 2.0 0.00 0.00 0.00 41 1013.0
20260504005508 53 234 0.0 2.0 0.00 0.00 0.00 41 1012.9
20260504005011 53 248 0.0 2.0 0.00 0.00 0.00 42 1012.9
20260504004524 54 248 0.0 2.0 0.00 0.00 0.00 40 1012.9
20260504004008 53 240 0.0 2.0 0.00 0.00 0.00 42 1012.8
20260504003506 54 240 0.0 2.0 0.00 0.00 0.00 40 1012.7
20260504003006 54 239 0.0 2.0 0.00 0.00 0.00 41 1012.6
20260504002504 54 239 0.0 2.0 0.00 0.00 0.00 39 1012.7
20260504002006 55 236 0.0 2.0 0.00 0.00 0.00 39 1012.7
20260504001511 55 231 0.0 2.0 0.00 0.00 0.00 38 1012.7
20260504001005 55 263 1.0 2.0 0.00 0.00 0.00 39 1012.6
20260504000507 56 280 1.0 4.0 0.00 0.00 0.00 36 1012.5
20260504000015 56 265 1.0 6.0 0.00 0.00 0.00 36 1012.5
20260503235509 56 245 2.0 6.0 0.00 0.00 0.00 35 1012.5
20260503235008 56 264 1.0 4.0 0.00 0.00 0.00 35 1012.5
20260503234522 57 283 2.0 4.0 0.00 0.00 0.00 35 1012.4
20260503234009 57 286 1.0 7.0 0.00 0.00 0.00 34 1012.4
20260503233510 57 265 1.0 7.0 0.00 0.00 0.00 34 1012.3
20260503233028 57 265 1.0 4.0 0.00 0.00 0.00 34 1012.2
20260503232507 58 259 1.0 4.0 0.00 0.00 0.00 34 1012.2
20260503232002 58 246 2.0 4.0 0.00 0.00 0.00 32 1012.1
20260503231514 58 260 2.0 8.0 0.00 0.00 0.00 33 1012.1
20260503231003 58 290 2.0 8.0 0.00 0.00 0.00 34 1012.0
20260503230503 58 304 2.0 6.0 0.00 0.00 0.00 33 1012.0
20260503230015 58 265 1.0 10.0 0.00 0.00 0.00 32 1012.0
20260503225510 59 254 3.0 10.0 0.00 0.00 0.00 30 1011.9
20260503225009 58 330 2.0 9.0 0.00 0.00 0.00 33 1012.0
20260503224520 58 294 4.0 9.0 0.00 0.00 0.00 31 1011.8
20260503224007 58 237 2.0 9.0 0.00 0.00 0.00 33 1011.8
20260503223512 58 269 2.0 12.0 0.00 0.00 0.00 34 1011.8
20260503223024 59 260 4.0 12.0 0.00 0.00 0.00 32 1011.8
20260503222507 59 259 3.0 10.0 0.00 0.00 0.00 34 1011.7
20260503222015 59 296 1.0 4.0 0.00 0.00 0.00 33 1011.8
20260503221525 59 283 2.0 8.0 0.00 0.00 0.00 34 1011.8
20260503221003 59 266 1.0 10.0 0.00 0.00 0.00 34 1011.9
20260503220502 59 331 3.0 10.0 0.00 0.00 0.00 30 1011.8
20260503220014 59 259 2.0 7.0 0.00 0.00 0.00 32 1011.9
20260503215502 59 296 3.0 10.0 0.00 0.00 0.00 32 1011.9
20260503215006 59 315 2.0 10.0 0.00 0.00 0.00 32 1012.0
20260503214521 60 302 3.0 9.0 0.00 0.00 0.00 32 1012.1
20260503214009 59 325 2.0 12.0 0.00 0.00 0.00 31 1012.0
20260503213506 59 316 2.0 12.0 0.00 0.00 0.00 33 1011.9
20260503213020 59 280 4.0 12.0 0.00 0.00 0.00 30 1011.9
20260503212503 60 32 4.0 12.0 0.00 0.00 0.00 30 1012.0
20260503212002 59 265 6.0 11.0 0.00 0.00 0.00 31 1011.9
20260503211506 60 343 3.0 9.0 0.00 0.00 0.00 34 1011.9
20260503211003 59 78 3.0 9.0 0.00 0.00 0.00 32 1012.0
20260503210504 58 310 3.0 9.0 0.00 0.00 0.00 32 1012.1
20260503210010 59 280 3.0 8.0 0.00 0.00 0.00 32 1012.1
20260503205504 60 42 4.0 14.0 0.00 0.00 0.00 34 1012.1
20260503205007 59 332 5.0 13.0 0.00 0.00 0.00 32 1012.2
20260503204519 59 318 5.0 12.0 0.00 0.00 0.00 32 1012.0
20260503204007 59 265 5.0 11.0 0.00 0.00 0.00 32 1012.1
20260503203507 59 273 5.0 11.0 0.00 0.00 0.00 35 1012.1
20260503203021 58 286 6.0 14.0 0.00 0.00 0.00 33 1012.1
20260503202510 58 327 8.0 14.0 0.00 0.00 0.00 31 1012.2
20260503202012 59 248 5.0 11.0 0.00 0.00 0.00 34 1012.1
20260503201524 58 311 3.0 8.0 0.00 0.00 0.00 36 1012.1
20260503201003 58 259 3.0 9.0 0.00 0.00 0.00 35 1012.1
20260503200504 58 28 3.0 10.0 0.00 0.00 0.00 32 1012.1
20260503200009 58 310 4.0 11.0 0.00 0.00 0.00 33 1012.2
20260503195502 58 41 6.0 13.0 0.00 0.00 0.00 32 1012.1
20260503195006 58 321 7.0 13.0 0.00 0.00 0.00 33 1012.1
20260503194510 58 275 5.0 12.0 0.00 0.00 0.00 34 1012.2
20260503194007 59 228 5.0 12.0 0.00 0.00 0.00 35 1012.3
20260503193504 58 325 5.0 14.0 0.00 0.00 0.00 33 1012.4
20260503193016 59 5 6.0 14.0 0.00 0.00 0.00 39 1012.3
20260503192507 58 300 5.0 12.0 0.00 0.00 0.00 37 1012.4
20260503192014 58 336 6.0 11.0 0.00 0.00 0.00 33 1012.4
20260503191531 58 305 4.0 9.0 0.00 0.00 0.00 34 1012.5
20260503191011 58 305 4.0 10.0 0.00 0.00 0.00 36 1012.5
20260503190510 57 5 3.0 10.0 0.00 0.00 0.00 36 1012.6
20260503190008 58 252 3.0 9.0 0.00 0.00 0.00 37 1012.6